KI4BSX Weather Reports


time (UTC)temp
C
wind
direction
speed
KPH
gust
KPH
rain 1hr
cm
rain 24hr
cm
rain mn
cm
humidity
%
barometer
mb
20260507203158 23 315 6.4 14.5 0.00 5.74 5.74 78 1012.1
20260507202653 23 273 3.2 4.8 0.00 5.74 5.74 79 1012.1
20260507202150 23 16 1.6 6.4 0.00 5.74 5.74 79 1011.9
20260507201645 23 319 14.5 20.9 0.00 5.74 5.74 79 1012.0
20260507201143 23 303 8.0 9.7 0.00 5.74 5.74 81 1012.1
20260507200639 23 300 3.2 16.1 0.00 5.74 5.74 82 1012.1
20260507200135 23 244 9.7 11.3 0.00 5.74 5.74 84 1012.0
20260507195632 23 270 9.7 12.9 0.00 5.74 5.74 85 1012.2
20260507195129 23 263 8.0 16.1 0.00 5.74 5.74 87 1012.1
20260507194626 22 348 6.4 16.1 0.00 5.74 5.74 88 1012.2
20260507194121 22 326 8.0 12.9 0.00 5.74 5.74 89 1012.3
20260507193619 22 316 4.8 12.9 0.00 5.74 5.74 90 1012.4
20260507193116 23 303 11.3 14.5 0.00 5.74 5.74 91 1012.3
20260507192612 23 271 6.4 14.5 0.00 5.74 5.74 92 1012.3
20260507192109 23 300 9.7 16.1 0.00 5.74 5.74 93 1012.4
20260507191603 23 326 6.4 20.9 0.00 5.74 5.74 94 1012.3
20260507191101 23 227 3.2 16.1 0.00 5.74 5.74 95 1012.5
20260507190558 23 319 9.7 16.1 0.00 5.74 5.74 96 1012.3
20260507190057 23 317 11.3 17.7 0.00 5.74 5.74 97 1012.2
20260507185555 23 300 0.0 11.3 0.00 5.74 5.74 98 1012.3
20260507185051 23 309 6.4 14.5 0.00 5.74 5.74 98 1012.6
20260507184550 23 306 6.4 11.3 0.00 5.74 5.74 98 1012.8
20260507184047 23 148 4.8 9.7 0.00 5.74 5.74 99 1012.5
20260507183543 22 334 14.5 16.1 0.00 5.74 5.74 99 1012.5
20260507183040 23 309 6.4 11.3 0.00 5.74 5.74 99 1012.5
20260507182537 23 339 6.4 9.7 0.00 5.74 5.74 99 1012.6
20260507182032 23 345 8.0 14.5 0.00 5.74 5.74 99 1012.8
20260507181530 22 303 3.2 9.7 0.00 5.74 5.74 99 1012.7
20260507181026 21 300 3.2 20.9 0.00 5.74 5.74 99 1012.7
20260507180522 22 272 4.8 14.5 0.00 5.74 5.74 99 1012.5
20260507180019 22 306 3.2 11.3 0.00 5.74 5.74 99 1012.9
20260507175515 22 269 3.2 3.2 0.00 5.74 5.74 99 1012.6
20260507175013 22 348 3.2 14.5 0.00 5.74 5.74 99 1012.8
20260507174510 22 331 8.0 17.7 0.00 5.74 5.74 99 1012.9
20260507174008 22 309 11.3 12.9 0.00 5.74 5.74 99 1013.1
20260507173504 21 320 3.2 11.3 0.00 5.74 5.74 99 1012.7
20260507173002 21 235 4.8 12.9 0.00 5.74 5.74 99 1012.7
20260507172458 21 348 6.4 11.3 0.00 5.74 5.74 99 1012.8
20260507171955 21 284 1.6 4.8 0.00 5.74 5.74 99 1012.6
20260507171450 21 35 1.6 4.8 0.00 5.74 5.74 99 1012.8
20260507170948 20 300 1.6 4.8 0.00 5.74 5.74 99 1012.8
20260507170444 20 338 11.3 12.9 0.00 5.74 5.74 99 1012.9
20260507165940 21 307 6.4 9.7 0.00 5.74 5.74 99 1012.9
20260507165437 20 185 6.4 6.4 0.00 5.74 5.74 99 1012.8
20260507164933 20 309 6.4 9.7 0.00 5.74 5.74 99 1012.8
20260507164430 20 311 1.6 9.7 0.00 5.74 5.74 99 1012.9
20260507163926 19 21 1.6 11.3 0.00 5.74 5.74 99 1012.8
20260507163424 19 137 1.6 6.4 0.00 5.74 5.74 99 1012.9
20260507162921 19 270 4.8 11.3 0.00 5.74 5.74 99 1013.0
20260507162416 19 213 1.6 3.2 0.00 5.74 5.74 99 1012.9
20260507161914 19 291 3.2 4.8 0.00 5.74 5.74 99 1012.9
20260507161409 18 312 4.8 9.7 0.00 5.74 5.74 99 1012.9
20260507160907 18 304 3.2 4.8 0.00 5.74 5.74 99 1013.0
20260507160402 18 322 3.2 4.8 0.00 5.74 5.74 99 1013.0
20260507155859 18 338 3.2 4.8 0.00 5.74 5.74 99 1012.9
20260507155354 18 326 1.6 4.8 0.00 5.74 5.74 99 1013.1
20260507154851 18 68 0.0 3.2 0.00 5.74 5.74 99 1013.1
20260507154349 18 328 3.2 4.8 0.00 5.74 5.74 99 1013.3
20260507153932 18 254 0.0 3.2 0.00 5.74 5.74 99 1013.6
20260507153846 18 254 0.0 3.2 0.00 5.74 5.74 99 1013.6
20260507153548 18 7 1.6 1.6 0.00 5.74 5.74 99 1013.6
20260507153342 18 7 1.6 1.6 0.00 5.74 5.74 99 1013.6
20260507153140 18 311 1.6 3.2 0.00 5.74 5.74 99 1013.7
20260507152838 18 311 1.6 3.2 0.00 5.74 5.74 99 1013.7
20260507152335 18 335 3.2 4.8 0.00 5.74 5.74 99 1013.5
20260507152256 18 122 0.0 4.8 0.00 5.74 5.74 99 1013.5
20260507151831 18 122 0.0 4.8 0.00 5.74 5.74 99 1013.5
20260507151327 18 335 3.2 4.8 0.00 5.74 5.74 99 1013.5
20260507150824 18 334 0.0 1.6 0.00 5.74 5.74 99 1013.3
20260507150321 18 336 1.6 4.8 0.00 5.74 5.74 99 1013.3
20260507145817 18 319 3.2 6.4 0.00 5.74 5.74 99 1013.3
20260507145313 18 335 0.0 4.8 0.00 5.74 5.74 99 1013.4
20260507144811 18 341 0.0 1.6 0.13 5.74 5.74 99 1013.4
20260507144308 17 343 0.0 0.0 0.43 5.74 5.74 99 1013.5
20260507143804 17 41 0.0 0.0 0.48 5.71 5.71 99 1013.6
20260507143302 17 299 1.6 3.2 0.30 5.66 5.66 99 1013.8
20260507142757 17 352 0.0 1.6 0.30 5.64 5.64 99 1014.1
20260507142248 17 322 1.6 1.6 0.18 5.59 5.59 99 1013.8
20260507141744 17 329 1.6 1.6 0.18 5.59 5.59 99 1013.6
20260507141242 17 330 0.0 0.0 0.00 5.56 5.56 99 1013.4
20260507140737 17 320 0.0 3.2 0.13 5.56 5.56 99 1013.2
20260507140236 17 3 0.0 0.0 0.13 5.56 5.56 99 1012.7
20260507135732 17 2 0.0 3.2 0.00 5.54 5.54 99 1012.9
20260507135230 17 86 0.0 1.6 0.00 5.54 5.54 99 1012.6
20260507134726 17 25 0.0 0.0 0.00 5.54 5.54 99 1013.3
20260507134222 17 28 0.0 0.0 0.00 5.54 5.54 99 1013.3
20260507133718 17 28 0.0 0.0 0.30 5.54 5.54 99 1013.1
20260507133215 17 27 0.0 0.0 0.48 5.54 5.54 99 1012.9
20260507132712 17 312 0.0 3.2 0.18 5.49 5.49 99 1013.2
20260507132209 17 149 0.0 0.0 0.13 5.46 5.46 99 1012.5
20260507131706 17 191 0.0 0.0 0.43 5.46 5.46 99 1013.2
20260507131204 17 191 0.0 0.0 0.48 5.44 5.44 99 1013.1
20260507130700 17 191 0.0 0.0 0.30 5.38 5.38 99 1013.4
20260507130158 17 191 0.0 0.0 0.61 5.36 5.36 99 1013.7
20260507125657 17 254 0.0 0.0 1.27 5.33 5.33 99 1014.0
20260507125154 17 255 0.0 0.0 1.07 5.26 5.26 99 1014.0
20260507124649 17 255 0.0 0.0 0.89 5.13 5.13 99 1013.9
20260507124148 17 227 0.0 0.0 1.19 5.08 5.08 99 1014.2
20260507123646 17 253 0.0 3.2 1.19 4.95 4.95 99 1013.4
20260507123143 17 281 1.6 3.2 0.89 4.88 4.88 99 1013.5
20260507122638 17 309 0.0 1.6 0.30 4.75 4.75 99 1013.0
20260507122134 17 189 0.0 0.0 0.30 4.72 4.72 99 1012.8
20260507121630 17 274 0.0 0.0 0.13 4.70 4.70 99 1012.8
20260507121126 17 278 0.0 3.2 0.00 4.67 4.67 99 1013.1
20260507120622 17 177 0.0 0.0 0.00 4.67 4.67 99 1012.4
20260507120119 17 176 0.0 0.0 0.00 4.67 4.67 99 1012.1
20260507115615 17 138 0.0 0.0 0.00 4.67 4.67 99 1012.1
20260507115111 17 133 0.0 6.4 0.00 4.67 4.67 99 1012.1
20260507114607 17 141 1.6 3.2 0.18 4.67 4.67 99 1012.4
20260507114105 17 161 0.0 0.0 0.48 4.67 4.67 99 1013.1
20260507113602 17 161 0.0 0.0 1.50 4.65 4.65 99 1013.0
20260507113059 17 162 0.0 0.0 2.87 4.60 4.60 99 1013.0
20260507112557 17 263 0.0 6.4 4.01 4.34 4.34 99 1013.4
20260507112053 17 294 3.2 9.7 4.75 4.06 4.06 99 1014.1
20260507111550 17 285 3.2 11.3 4.55 3.68 3.68 99 1013.6
20260507111047 17 321 3.2 4.8 3.78 3.25 3.25 99 1013.1
20260507110543 17 330 0.0 1.6 1.85 2.84 2.84 99 1012.6
20260507110040 17 1 0.0 0.0 1.68 2.62 2.62 99 1012.3
20260507105537 17 5 0.0 0.0 1.19 2.54 2.54 99 1012.2
20260507105033 17 9 0.0 0.0 0.18 2.34 2.34 99 1012.5
20260507104531 17 9 0.0 0.0 0.13 2.31 2.31 99 1012.3
20260507104027 17 10 0.0 0.0 0.43 2.31 2.31 99 1012.3
20260507103523 17 324 0.0 0.0 0.30 2.29 2.29 99 1012.2
20260507103019 17 324 0.0 0.0 0.18 2.24 2.24 99 1012.4
20260507102516 17 324 0.0 0.0 0.30 2.24 2.24 99 1012.4
20260507102012 17 322 0.0 0.0 0.30 2.21 2.21 99 1012.4
20260507101508 17 320 0.0 0.0 0.18 2.18 2.18 99 1012.9
20260507101005 17 318 0.0 0.0 0.00 2.16 2.16 99 1012.9
20260507100502 17 317 0.0 0.0 0.00 2.16 2.16 99 1012.8
20260507100000 17 315 0.0 0.0 0.00 2.16 2.16 99 1012.7
20260507095457 17 302 0.0 0.0 0.00 2.16 2.16 99 1012.8
20260507094948 17 291 0.0 0.0 0.00 2.16 2.16 99 1012.9
20260507094444 17 291 0.0 0.0 0.00 2.16 2.16 99 1012.8
20260507093942 17 289 0.0 0.0 0.00 2.16 2.16 99 1012.7
20260507093439 17 279 0.0 0.0 0.00 2.16 2.16 99 1012.8
20260507092937 17 267 0.0 0.0 0.00 2.16 2.16 99 1012.9
20260507092433 17 253 0.0 0.0 0.00 2.16 2.16 99 1013.2
20260507091930 17 253 0.0 0.0 0.00 2.16 2.16 99 1013.2
20260507091427 17 252 0.0 0.0 0.00 2.16 2.16 99 1013.2
20260507090922 17 253 0.0 0.0 0.00 2.16 2.16 99 1013.2
20260507090419 17 252 0.0 0.0 0.00 2.16 2.16 99 1013.0
20260507085915 17 252 0.0 0.0 0.13 2.16 2.16 99 1013.3
20260507085413 17 252 0.0 0.0 0.13 2.16 2.16 99 1013.2
20260507084910 17 252 0.0 0.0 0.00 2.13 2.13 99 1013.3
20260507084406 17 252 0.0 0.0 0.00 2.13 2.13 99 1013.4
20260507083904 17 253 0.0 0.0 0.00 2.13 2.13 99 1013.6
20260507083400 17 253 0.0 0.0 0.00 2.13 2.13 99 1013.4
20260507082856 17 251 0.0 0.0 0.00 2.13 2.13 99 1013.1
20260507082352 17 251 0.0 0.0 0.18 2.13 2.13 99 1013.3
20260507081849 17 251 0.0 0.0 0.18 2.13 2.13 99 1013.6
20260507081345 17 251 0.0 0.0 0.00 2.11 2.11 99 1013.9
20260507080842 17 251 0.0 0.0 0.00 2.11 2.11 99 1013.7
20260507080338 17 251 0.0 0.0 0.00 2.11 2.11 99 1013.8
20260507075834 17 253 0.0 0.0 0.00 2.11 2.11 99 1013.4
20260507075330 17 254 0.0 0.0 0.00 2.11 2.11 99 1013.7
20260507074827 17 254 0.0 0.0 0.00 2.11 2.11 99 1013.7
20260507074324 17 254 0.0 0.0 0.18 2.11 2.11 99 1014.0
20260507073821 17 254 0.0 0.0 0.18 2.11 2.11 99 1013.8
20260507073318 17 254 0.0 0.0 0.30 2.08 2.08 99 1013.5
20260507072815 17 257 0.0 0.0 0.61 2.08 2.08 99 1013.7
20260507072313 17 276 0.0 0.0 0.71 2.03 2.03 99 1013.9
20260507071810 17 282 1.6 1.6 0.71 1.98 1.98 99 1014.2
20260507071306 17 234 0.0 0.0 0.48 1.91 1.91 99 1014.0
20260507070803 17 286 0.0 0.0 0.30 1.85 1.85 99 1013.9
20260507070300 17 269 0.0 1.6 0.13 1.83 1.83 99 1014.1
20260507065757 17 294 0.0 0.0 0.18 1.80 1.80 99 1014.0
20260507065253 17 293 0.0 0.0 0.18 1.80 1.80 99 1014.3
20260507064751 17 293 0.0 0.0 0.18 1.78 1.78 99 1014.6
20260507064249 17 294 0.0 1.6 0.18 1.78 1.78 99 1014.6
20260507063747 17 68 0.0 0.0 0.30 1.75 1.75 99 1014.1
20260507063243 17 40 0.0 0.0 0.48 1.73 1.73 99 1014.2
20260507062740 17 274 0.0 0.0 0.43 1.70 1.70 99 1014.5
20260507062237 17 273 0.0 0.0 0.43 1.65 1.65 99 1014.9
20260507061736 17 82 0.0 0.0 0.61 1.60 1.60 99 1014.7
20260507061233 17 82 0.0 0.0 0.79 1.57 1.57 99 1014.6
20260507060731 17 82 0.0 1.6 0.61 1.50 1.50 99 1014.6
20260507060227 17 282 0.0 0.0 0.79 1.45 1.45 99 1015.5
20260507055724 17 259 1.6 3.2 0.89 1.40 1.40 99 1015.6
20260507055219 17 261 0.0 0.0 0.61 1.30 1.30 99 1015.5
20260507054715 17 288 0.0 0.0 0.66 1.24 1.24 99 1015.3
20260507054213 17 303 1.6 3.2 0.79 1.19 1.19 99 1015.4
20260507053710 17 144 1.6 1.6 1.32 1.14 1.14 99 1015.0
20260507053208 17 283 0.0 3.2 1.37 1.07 1.07 99 1015.7
20260507052707 17 291 1.6 4.8 1.27 0.91 0.91 99 1016.1
20260507052202 17 286 0.0 1.6 1.19 0.81 0.81 99 1016.0
20260507051700 17 263 1.6 1.6 1.19 0.71 0.71 99 1016.0
20260507051156 17 260 0.0 3.2 1.07 0.61 0.61 99 1016.0
20260507050653 17 273 1.6 3.2 1.19 0.51 0.51 99 1016.0
20260507050150 17 266 0.0 3.2 0.71 0.43 0.43 99 1016.1
20260507045647 17 287 0.0 0.0 0.18 0.30 0.30 99 1016.0
20260507045144 17 329 1.6 1.6 0.18 0.30 0.30 99 1015.4
20260507044641 17 346 0.0 0.0 0.00 0.28 0.28 99 1015.4
20260507044137 17 280 0.0 0.0 0.00 0.28 0.28 99 1015.6
20260507043633 17 328 1.6 3.2 0.00 0.28 0.28 99 1014.9
20260507043131 17 46 0.0 0.0 0.13 0.28 0.28 99 1015.0
20260507042626 17 44 0.0 1.6 0.30 0.28 0.28 99 1015.2
20260507042121 17 337 0.0 0.0 0.66 0.25 0.25 99 1015.1
20260507041618 17 336 0.0 0.0 0.89 0.20 0.20 98 1015.0
20260507041116 17 86 0.0 0.0 0.79 0.13 0.13 98 1015.5
20260507040613 17 4 3.2 4.8 0.30 0.03 0.03 98 1015.6
20260507040109 17 274 0.0 0.0 0.30 0.00 0.00 98 1015.2
20260507035604 17 85 0.0 3.2 0.30 3.61 3.61 98 1015.4
20260507035100 17 310 1.6 3.2 1.68 3.58 3.58 98 1015.4
20260507034557 17 43 0.0 0.0 2.34 3.56 3.56 98 1015.2
20260507034055 17 94 1.6 3.2 1.37 3.30 3.30 98 1015.5
20260507033553 17 99 0.0 0.0 0.79 3.15 3.15 98 1015.7
20260507033050 17 324 0.0 0.0 0.43 3.07 3.07 98 1015.6
20260507032547 17 322 0.0 0.0 0.13 3.02 3.02 97 1015.9
20260507032044 17 62 0.0 3.2 0.00 3.00 3.00 97 1015.7
20260507031540 17 154 0.0 1.6 0.18 3.00 3.00 97 1015.4
20260507031037 17 8 0.0 0.0 0.48 3.00 3.00 97 1015.4
20260507030534 18 100 0.0 0.0 0.48 2.95 2.95 97 1015.4
20260507030032 18 98 0.0 1.6 0.30 2.92 2.92 97 1015.3
20260507025528 18 145 0.0 0.0 0.00 2.87 2.87 97 1015.2
20260507025026 18 90 0.0 0.0 0.00 2.87 2.87 97 1015.4
20260507024523 18 90 0.0 1.6 0.00 2.87 2.87 96 1015.5
20260507024020 18 255 0.0 1.6 0.00 2.87 2.87 96 1016.0
20260507023516 18 300 0.0 1.6 0.18 2.87 2.87 96 1015.9
20260507023014 18 125 0.0 1.6 0.48 2.87 2.87 96 1015.4
20260507022510 18 64 0.0 0.0 0.71 2.84 2.84 96 1015.4
20260507022000 18 300 1.6 1.6 1.19 2.79 2.79 95 1015.4
20260507021456 18 84 0.0 1.6 1.68 2.72 2.72 95 1015.5
20260507020953 18 86 1.6 1.6 2.29 2.59 2.59 95 1015.6
20260507020450 18 81 0.0 0.0 1.55 2.39 2.39 95 1016.4
20260507015947 18 105 0.0 1.6 0.61 2.18 2.18 95 1016.2
20260507015446 18 100 0.0 0.0 0.43 2.13 2.13 94 1016.5
20260507014943 18 96 0.0 1.6 0.30 2.08 2.08 94 1016.1
20260507014439 18 313 0.0 3.2 0.30 2.06 2.06 94 1016.4
20260507013935 18 70 1.6 1.6 0.30 2.03 2.03 94 1015.6
20260507013432 18 70 0.0 0.0 0.66 2.01 2.01 93 1016.2
20260507012930 18 70 0.0 0.0 0.79 1.98 1.98 93 1016.2
20260507012426 18 77 0.0 1.6 0.30 1.91 1.91 93 1016.0
20260507011922 18 96 0.0 0.0 0.13 1.85 1.85 92 1016.2
20260507011420 18 96 0.0 0.0 0.30 1.85 1.85 92 1016.0
20260507010914 18 96 0.0 0.0 0.18 1.83 1.83 92 1016.1
20260507010409 18 97 0.0 1.6 0.13 1.80 1.80 91 1016.0
20260507005907 18 76 0.0 0.0 0.30 1.80 1.80 91 1016.1
20260507005404 18 248 1.6 1.6 0.18 1.78 1.78 90 1016.2
20260507004900 18 108 0.0 0.0 0.43 1.75 1.75 90 1016.2
20260507004357 18 277 0.0 1.6 2.29 1.75 1.75 89 1016.4
20260507003854 19 287 4.8 9.7 3.78 1.65 1.65 88 1016.5
20260507003350 20 325 9.7 11.3 4.55 1.32 1.32 87 1016.5
20260507002845 20 323 1.6 4.8 4.27 0.97 0.97 86 1016.2
20260507002341 21 307 6.4 6.4 2.59 0.53 0.53 84 1016.1
20260507001839 22 206 1.6 3.2 1.37 0.23 0.23 82 1014.8
20260507001335 23 38 0.0 1.6 0.30 0.05 0.05 79 1013.7
20260507000832 23 227 0.0 0.0 0.00 0.00 0.00 78 1013.6
20260507000328 23 22 1.6 3.2 0.00 0.00 0.00 77 1013.2
20260506235824 24 55 3.2 3.2 0.00 0.00 0.00 76 1013.2
20260506235320 24 224 0.0 0.0 0.00 0.00 0.00 75 1013.3
20260506234817 24 225 0.0 1.6 0.00 0.00 0.00 75 1013.3
20260506234315 24 24 0.0 3.2 0.00 0.00 0.00 75 1013.5
20260506233812 24 139 0.0 0.0 0.00 0.00 0.00 74 1013.8
20260506233308 24 139 0.0 1.6 0.00 0.00 0.00 73 1013.8
20260506232805 25 139 0.0 1.6 0.00 0.00 0.00 72 1013.9
20260506232300 25 136 0.0 1.6 0.00 0.00 0.00 71 1013.9
20260506231757 25 181 0.0 1.6 0.00 0.00 0.00 69 1014.2
20260506231255 26 332 0.0 1.6 0.00 0.00 0.00 68 1014.1
20260506230752 26 8 0.0 3.2 0.00 0.00 0.00 67 1014.3
20260506230250 26 327 1.6 1.6 0.00 0.00 0.00 67 1014.3
20260506225746 26 308 0.0 3.2 0.00 0.00 0.00 66 1014.1
20260506225242 26 346 0.0 1.6 0.00 0.00 0.00 66 1014.5
20260506224733 26 316 1.6 3.2 0.00 0.00 0.00 67 1014.5
20260506224231 26 59 1.6 1.6 0.00 0.00 0.00 67 1013.7
20260506223727 26 134 0.0 1.6 0.00 0.00 0.00 66 1014.0
20260506223222 26 85 4.8 4.8 0.00 0.00 0.00 65 1013.9
20260506222720 26 12 0.0 3.2 0.00 0.00 0.00 65 1013.9
20260506222215 26 6 0.0 0.0 0.00 0.00 0.00 65 1013.9
20260506221713 26 58 3.2 3.2 0.00 0.00 0.00 64 1013.7
20260506221211 26 323 1.6 4.8 0.00 0.00 0.00 64 1013.7
20260506220708 26 359 0.0 4.8 0.00 0.00 0.00 65 1013.6
20260506220208 26 216 1.6 3.2 0.00 0.00 0.00 65 1013.6
20260506215705 26 60 3.2 9.7 0.00 0.00 0.00 65 1013.6
20260506215200 26 127 0.0 3.2 0.00 0.00 0.00 66 1013.4
20260506214657 26 127 4.8 6.4 0.00 0.00 0.00 65 1013.8
20260506214155 27 65 1.6 1.6 0.00 0.00 0.00 64 1014.0
20260506213653 27 19 4.8 6.4 0.00 0.00 0.00 63 1014.0
20260506213150 27 21 3.2 4.8 0.00 0.00 0.00 65 1013.9
20260506212647 27 325 4.8 6.4 0.00 0.00 0.00 64 1014.2
20260506212142 27 70 0.0 4.8 0.00 0.00 0.00 66 1014.3
20260506211638 27 356 0.0 3.2 0.00 0.00 0.00 68 1014.1
20260506211135 27 172 0.0 1.6 0.00 0.00 0.00 66 1014.4
20260506210632 27 57 0.0 1.6 0.00 0.00 0.00 65 1014.5
20260506210128 28 270 0.0 1.6 0.00 0.00 0.00 64 1014.5
20260506205625 27 99 0.0 0.0 0.00 0.00 0.00 65 1014.5
20260506205120 28 51 0.0 0.0 0.00 0.00 0.00 65 1014.8
20260506204618 27 290 0.0 1.6 0.00 0.00 0.00 65 1014.7
20260506204115 27 194 0.0 1.6 0.00 0.00 0.00 66 1015.0
20260506203613 27 10 0.0 1.6 0.00 0.00 0.00 67 1014.7